Weather in Funtua

Nigeria     11°31′34″N   7°18′33″E
temp.,
°C
wind,
m/s
gust,
m/s
humid.,
%
clouds,
%
prec.,
mm/h
press.,
hPa
HPBL,
m
15 april, thu
thu1501:00+27ese581483 0.0 1010139
04:00+26s3628100 0.0 1010150
07:00+23ssw496480 0.0 1012251
10:00+32ssw443435 0.0 10121016
13:00+37ene341369 0.0 10083737
16:00+38ne431059 0.0 10054236
19:00+32ne461396 0.0 100663
22:00+28ne5119100 0.0 1008169
16 april, fri
fri1601:00+26ene3391 0.0 100830
04:00+23sse34133 0.0 100842
07:00+25sse34111 0.0 100955
10:00+34sse461594 0.0 10101349
13:00+38e44876 0.0 10073797
16:00+39e3485 0.0 10034238
19:00+32ene4680 0.0 100563
22:00+29ene441062 0.0 100739
17 april, sat
sat1701:00+24s332674 0.0 100834
04:00+24s3552100 0.0 100878
07:00+23ssw4967100 0.0 1010272
10:00+32sw663997 0.0 1010869
13:00+37ssw1418100 0.0 10073749
16:00+38e331299 0.0 10044300
19:00+32ne341640 0.0 100538
22:00+29s332051 0.0 100825
18 april, sun
sun1801:00+26sw463874 0.0 100979
04:00+24sw71468100 0.0 1009414
07:00+24sw61271100 0.0 1011490
10:00+31sw6740100 0.0 1012812
13:00+36w342176 0.0 10092859
16:00+38n441496 0.0 10064092
19:00+34n3617100 0.0 100799
22:00+30nnw2222100 0.0 100912
19 april, mon
mon1901:00+27s4529100 0.0 100962
04:00+24sw3449100 0.0 100963
07:00+25sw51262100 0.0 1010414
10:00+32sw6639100 0.0 1011853
13:00+37wnw1217100 0.0 10073638
16:00+39nne221397 0.0 10044246
19:00+33sse221899 0.0 100527
22:00+30sw592940 0.0 1008155